Snowfall_Accumulation
0.0 0.0 0.0 0.0 0.0 0.0 0.0 0.0 0.0 0.0 0.0 0.1 0.0 0.0 0.0 0.0 0.0 0.0 0.0 0.0 0.0 0.0 0.0 0.0 0.0 0.0 0.0 0.0 0.0 0.0 0.0 0.0 0.0 0.0 0.0 0.0 0.0 0.0 0.0 0.3 0.3 0.2 0.4 0.3
0.0 0.0 0.0 0.0 0.0 0.0 0.0 0.0 0.0 0.0 0.0 0.4 0.1 0.0 0.0 0.0 0.0 0.0 0.0 0.0 0.0 0.0 0.1 0.1 0.0 0.0 0.0 0.0 0.0 0.0 0.0 0.0 0.0 0.0 0.0 0.0 0.0 0.0 0.0 0.0 0.1 0.2 0.2 0.1
0.0 0.0 0.0 0.0 0.0 0.0 0.0 0.0 4.4 0.6 0.9 0.6 0.0 0.1 0.1 0.0 0.0 0.0 0.0 0.0 0.0 0.0 0.1 0.0 0.0 0.0 0.0 0.0 0.0 0.0 0.0 0.0 0.0 0.0 0.0 0.0 0.0 0.0 0.0 0.0 0.1 0.1 0.0 0.1
0.0 0.0 0.0 0.0 0.0 0.0 0.0 0.8 0.6 0.1 1.7 0.6 0.0 0.2 1.0 0.1 0.1 0.1 0.0 0.1 0.0 0.1 0.2 0.0 0.0 0.0 0.0 0.0 0.0 0.0 0.0 1.1 0.2 0.0 0.0 0.0 0.0 0.1 0.1 0.4 0.3 1.0 0.0 0.0
0.0 0.0 0.0 0.0 0.0 0.0 0.0 1.1 1.6 2.5 1.8 0.8 0.6 2.5 2.2 0.3 0.6 0.3 0.1 0.0 0.0 0.0 0.1 0.1 0.1 0.0 0.2 0.1 0.0 0.0 0.0 0.6 0.4 0.5 0.0 0.0 0.2 0.1 0.1 0.1 0.2 0.3 0.4 0.4
0.0 0.0 0.0 0.0 0.0 0.0 1.1 2.0 1.4 1.1 5.2 4.8 3.5 2.8 0.5 1.0 1.6 2.5 0.9 0.1 0.4 0.4 0.1 0.0 0.1 0.3 0.5 0.9 0.9 1.0 1.1 1.5 2.0 1.7 0.1 0.5 1.3 0.2 0.0 0.0 0.1 0.3 0.5 0.0
0.0 0.0 0.0 0.0 0.0 0.0 0.0 1.5 2.7 5.8 14.2 9.4 6.3 4.8 3.6 3.1 2.6 2.5 1.4 0.7 1.5 1.3 0.6 0.7 0.6 0.4 0.4 0.6 0.6 0.5 1.5 1.7 2.3 2.0 0.9 1.7 0.2 0.0 0.0 0.1 0.2 0.2 0.4 0.3
0.0 0.0 0.0 0.0 0.0 0.0 1.8 3.7 3.4 3.4 10.7 8.5 5.7 4.5 3.6 3.2 2.7 2.2 1.9 1.3 1.4 0.9 0.4 0.4 0.3 0.0 0.0 0.0 0.0 0.2 0.9 1.7 2.5 2.0 1.0 0.1 0.2 0.1 0.0 0.1 0.1 0.0 0.1 0.1
0.0 0.0 0.0 0.0 0.0 0.0 0.0 2.5 3.1 3.2 10.3 10.9 7.0 4.7 3.7 2.7 2.1 1.9 1.5 1.1 0.7 0.3 0.2 0.3 0.4 0.0 0.0 0.0 0.0 0.0 0.0 0.4 1.6 0.7 1.3 0.5 0.1 0.0 0.1 0.3 0.1 0.1 0.1 0.1
0.0 0.0 0.0 0.0 0.0 0.0 1.4 3.4 3.5 4.7 6.6 7.4 5.0 3.2 2.8 2.2 1.6 1.1 0.8 0.5 0.1 0.0 0.1 0.3 0.2 0.0 0.0 0.0 0.0 0.0 0.0 0.0 0.6 0.5 1.3 0.6 0.1 0.0 0.1 0.4 0.3 0.2 0.1 0.1
0.0 0.0 0.0 0.0 0.0 0.9 0.1 4.0 3.9 2.3 4.4 6.2 3.9 2.9 2.4 1.6 0.7 0.3 0.3 0.2 0.1 0.0 0.3 0.4 0.3 0.5 0.3 0.1 0.0 0.0 0.0 0.0 0.0 0.0 0.5 0.5 0.1 0.2 0.2 0.4 0.4 0.3 0.0 0.1
0.0 0.0 0.0 0.0 1.2 0.6 0.2 4.1 3.5 1.0 2.0 4.2 1.6 1.1 1.0 1.0 1.1 0.6 0.3 0.2 0.0 0.2 0.2 0.3 0.1 0.1 0.2 0.0 0.1 0.0 0.0 0.0 0.1 0.1 0.2 0.3 0.4 0.4 0.3 0.3 0.2 0.1 0.1 0.0
0.0 0.0 0.0 0.0 1.1 0.7 0.0 2.4 1.8 0.8 1.4 1.8 0.9 0.5 0.1 0.0 0.0 0.3 0.1 0.1 0.3 0.4 0.4 0.5 0.3 0.3 0.1 0.0 0.0 0.0 0.0 0.1 0.1 0.1 0.1 0.1 0.2 0.0 0.1 0.1 0.1 0.0 0.0 0.0
0.0 0.0 0.0 0.1 0.1 0.2 0.2 0.4 0.4 0.1 0.3 0.4 1.0 0.0 0.0 0.0 0.0 0.0 0.0 0.0 0.0 0.6 0.4 0.7 0.5 0.3 0.1 0.1 0.0 0.0 0.0 0.0 0.0 0.0 0.0 0.0 0.0 0.0 0.0 0.0 0.0 0.0 0.0 0.0
0.0 0.0 0.0 0.0 0.0 0.0 0.0 0.0 0.0 0.0 0.0 0.0 0.2 0.0 0.0 0.0 0.0 0.0 0.0 0.0 0.2 0.5 0.4 0.2 0.4 0.2 0.1 0.1 0.0 0.0 0.0 0.1 0.1 0.0 0.1 0.1 0.0 0.0 0.0 0.0 0.0 0.0 0.0 0.0
0.0 0.0 0.0 0.0 0.0 0.0 0.0 0.0 0.0 0.0 0.0 0.0 0.0 0.0 0.0 0.0 0.0 0.0 0.0 0.0 0.0 0.1 0.2 0.2 0.1 0.3 0.3 0.2 0.0 0.0 0.1 0.2 0.2 0.0 0.0 0.0 0.0 0.0 0.0 0.0 0.0 0.0 0.1 0.0
0.0 0.0 0.0 0.0 0.0 0.0 0.0 0.1 0.0 0.0 0.0 0.0 0.1 0.0 0.0 0.0 0.0 0.0 0.0 0.0 0.0 0.0 0.0 0.0 0.1 0.0 0.0 0.0 0.0 0.0 0.0 0.0 0.0 0.0 0.0 0.0 0.0 0.0 0.0 0.0 0.0 0.0 0.0 0.0
0.0 0.0 0.0 0.0 0.0 0.0 0.0 0.0 0.0 0.0 0.0 0.0 0.0 0.0 0.0 0.0 0.0 0.0 0.0 0.0 0.0 0.0 0.0 0.0 0.0 0.0 0.0 0.0 0.0 0.0 0.0 0.0 0.0 0.0 0.0 0.0 0.0 0.0 0.0 0.0 0.0 0.0 0.0 0.0
0.0 0.0 0.0 0.0 0.0 0.0 0.0 0.0 0.0 0.0 0.0 0.0 0.0 0.0 0.0 0.0 0.0 0.0 0.0 0.0 0.0 0.0 0.0 0.0 0.0 0.0 0.0 0.0 0.0 0.0 0.0 0.1 0.0 0.0 0.0 0.0 0.0 0.0 0.0 0.0 0.0 0.0 0.0 0.0
0.0 0.0 0.0 0.0 0.0 0.0 0.0 0.0 0.0 0.0 0.0 0.0 0.0 0.0 0.0 0.0 0.0 0.0 0.0 0.0 0.0 0.0 0.0 0.0 0.0 0.0 0.0 0.0 0.0 0.0 0.0 0.0 0.0 0.4 0.2 0.0 0.1 0.0 0.0 0.0 0.0 0.0 0.0 0.0
0.0 0.0 0.0 0.0 0.0 0.0 0.0 0.0 0.0 0.0 0.0 0.0 0.0 0.0 0.0 0.0 0.1 0.0 0.0 0.0 0.0 0.0 0.0 0.0 0.0 0.0 0.0 0.0 0.0 0.0 0.0 0.0 0.0 0.0 0.2 0.1 0.2 0.3 0.2 0.1 0.0 0.0 0.1 0.1
0.0 0.0 0.0 0.0 0.0 0.0 0.0 0.0 0.0 0.0 0.0 0.0 0.0 0.0 0.0 0.0 0.0 0.0 0.0 0.0 0.0 0.0 0.0 0.0 0.0 0.0 0.0 0.0 0.1 0.2 0.3 0.5 0.6 0.4 0.6 0.5 0.4 0.4 0.7 0.6 0.3 0.2 0.2 0.1
0.0 0.0 0.0 0.0 0.0 0.0 0.0 0.0 0.0 0.0 0.0 0.0 0.0 0.0 0.0 0.0 0.0 0.0 0.0 0.0 0.0 0.0 0.0 0.0 0.0 0.0 0.0 0.2 0.5 0.4 0.0 0.1 0.2 0.2 0.2 0.3 0.3 0.3 0.4 0.7 0.4 0.4 0.5 0.1
0.0 0.0 0.0 0.0 0.0 0.0 0.0 0.0 0.0 0.0 0.0 0.0 0.0 0.0 0.0 0.0 0.0 0.0 0.0 0.0 0.0 0.0 0.0 0.0 0.0 0.1 0.3 0.2 0.2 0.4 0.4 0.3 0.4 0.4 0.4 0.4 0.4 0.4 0.1 0.2 0.3 0.7 0.7 0.1
0.0 0.0 0.0 0.0 0.0 0.0 0.0 0.0 0.0 0.0 0.0 0.0 0.0 0.0 0.0 0.0 0.0 0.0 0.0 0.0 0.0 0.0 0.2 0.2 0.3 0.4 0.2 0.4 0.2 0.5 0.7 0.6 0.7 0.5 0.7 0.4 0.2 0.4 0.5 0.0 0.1 0.6 0.9 0.6
0.0 0.0 0.0 0.0 0.0 0.0 0.0 0.0 0.0 0.0 0.0 0.0 0.0 0.0 0.0 0.0 0.0 0.0 0.0 0.2 0.2 0.3 0.4 0.4 0.6 0.7 0.2 0.5 0.6 0.6 0.7 0.5 0.7 0.6 0.4 0.5 0.6 0.7 0.7 0.1 0.0 0.1 0.3 0.4
0.0 0.0 0.0 0.0 0.0 0.0 0.0 0.0 0.0 0.0 0.0 0.0 0.0 0.0 0.0 0.0 0.0 0.1 0.4 0.8 0.5 0.5 0.5 0.4 0.7 1.3 1.2 0.7 0.7 0.3 0.5 0.6 0.5 0.7 0.3 0.4 0.3 0.4 0.4 0.3 0.0 0.0 0.1 0.3